www.pogodaiklimat.ru

Погода и климат >> Архив погоды >> Россия >> Якутия >> Агаякан


ПОГОДА в Агаякане

  • Прогноз погоды в Агаякане
  • Монитор погоды в Агаякане

АРХИВ ПОГОДЫ в Агаякане

Время (UTC), дата Ветер
(напр.,м/с)
 
Видим.   Явления Облачность Т
(С)
Тd
(С)
f
(%)
Тe
(С)
Тes
(С)
Комфортность P
(гПа)
Po
(гПа)
Тmin
(С)
Tmax
(С)
R
(мм)
R24
(мм)
S
(см)
06 12.07 Ю 1 50 км {дождь} 10/6 600 м
[Cu hum Cs]
+19.8 +13.1 65 +23 +26 комфорт 1007.5 921.4
09 12.07 штиль 0 50 км {ливн. осадки} 10/10 600 м
[Cb cap]
+16.1 +14.4 90 +16 +16 1008.6 921.4 +23.6 5
12 12.07 ЮЗ 1 50 км {ливн. осадки} 6/6 1000 м
[Sc]
+14.1 +13.6 97 +14 +14 1010.5 922.7
15 12.07 Ю 1 50 км 6/3 1000 м
[Sc Cs]
+9.0 +8.2 95 +8 +8 1012.1 922.4
18 12.07 штиль 0 50 км 4/4 1000 м
[Sc]
+8.7 +7.9 95 +8 +8 1012.8 922.8
21 12.07 ЮЗ 2 50 км 6/6 1000 м
[Sc]
+8.8 +8.2 96 +7 +8 1012.6 922.7 +8.4
00 13.07 ЮВ 2 50 км 3/3 1000 м
[Sc]
+15.3 +11.6 79 +15 +22 1010.7 923.0
03 13.07 СЗ 2 50 км 3/3 600 м
[Cu hum]
+22.4 +12.2 52 +25 +33 комфорт 1007.3 921.8
06 13.07 В 1 50 км 6/6 600 м
[Cu hum]
+24.1 +11.6 45 +26 +29 жарко 1004.8 920.1
09 13.07 СВ 1 50 км 6/6 600 м
[Cu hum]
+24.3 +11.6 45 +26 +27 жарко 1004.0 919.4 +25.0
12 13.07 штиль 0 50 км 8/8 600 м
[]
+21.8 +10.5 49 +24 +24 комфорт 1005.2 919.7
15 13.07 штиль 0 50 км 3/3 1000 м
[Sc diur, vesp]
+11.3 +10.1 92 +11 +11 1009.5 920.6
18 13.07 штиль 0 50 км 3/3 1000 м
[Sc diur, vesp]
+10.7 +9.9 95 +10 +10 1009.3 920.3
21 13.07 СВ 2 50 км ясно +11.6 +8.6 82 +10 +14 1010.2 921.4 +10.7
00 14.07 ЮВ 1 50 км ясно +19.3 +11.7 61 +22 +33 комфорт 1007.6 921.3
03 14.07 ЮВ 2 50 км 3/3 600 м
[Cu hum]
+25.0 +9.0 36 +26 +34 жарко 1004.0 919.5
06 14.07 ЮВ 1 50 км 4/4 600 м
[Cu hum]
+27.1 +8.6 31 +27 +32 жарко 1001.8 918.0
09 14.07 штиль 0 50 км 8/8 600 м
[Cb cap]
+22.8 +10.0 44 +25 +25 комфорт 1002.7 917.7 +27.4
12 14.07 штиль 0 50 км 6/6 600 м
[Cu Sc]
+18.4 +12.5 68 +19 +19 1004.5 918.2
15 14.07 Ю 2 50 км 6/6 1000 м
[Sc diur, vesp]
+14.7 +10.1 74 +14 +14 1006.1 918.5
18 14.07 Ю 1 50 км 6/6 1000 м
[Sc diur, vesp]
+13.1 +9.6 79 +13 +13 1006.9 918.8
21 14.07 ЮЗ 2 50 км в посл. час переохл. осадки (гололёд) 8/8 1000 м
[Sc]
+12.8 +9.9 83 +12 +13 1007.5 919.3 +12.7 0.5
00 15.07 штиль 0 50 км {дождь} 8/8 1000 м
[Sc]
+14.7 +10.9 78 +14 +17 1006.8 919.3
03 15.07 ЮЗ 1 20 км гроза, ливневой дождь 10/10 600 м
[Cb cap]
+18.1 +15.7 86 +19 +19 1004.9 918.6
06 15.07 ЮЗ 1 50 км дождь {гроза, ливн. осадки} 10/10 600 м
[Cu Sc]
+14.9 +14.0 94 +15 +15 1007.1 919.6
09 15.07 Ю 2 50 км {дождь} 9/9 600 м
[Cu Sc]
+16.3 +13.5 83 +16 +17 1005.8 918.8 +18.2 3
12 15.07 Ю 1 50 км {дождь} 10/10 1000 м
[Sc]
+16.1 +14.0 87 +17 +17 1006.0 919.0
15 15.07 Ю 1 50 км 8/8 1000 м
[Sc]
+14.9 +13.3 90 +15 +15 1006.8 919.4
18 15.07 Ю 1 50 км 8/8 1000 м
[Sc]
+13.5 +12.6 94 +14 +14 1007.7 919.8
21 15.07 штиль 0 50 км 3/3 1000 м
[Sc]
+12.7 +10.6 87 +12 +15 1008.0 919.7 +12.6
00 16.07 ЮВ 1 50 км 4/0
[Ac trans]
+18.1 +12.0 68 +19 +28 1006.2 919.6
03 16.07 С 2 50 км 4/4 600 м
[Cu hum]
+21.0 +8.2 44 +23 +30 комфорт 1004.3 918.6
06 16.07 С 1 50 км 8/4 600 м
[Cu hum Ci fib]
+21.4 +7.8 42 +22 +27 комфорт 1002.3 916.9
09 16.07 СВ 1 50 км 9/6 600 м
[Cu Sc Ci fib]
+21.4 +9.5 47 +23 +24 комфорт 1001.5 916.3 +22.0
12 16.07 СВ 1 50 км 9/9 600 м
[Cb cap]
+16.7 +9.9 64 +18 +18 1003.6 916.8
15 16.07 ЮЗ 1 50 км 10/10 600 м
[Cb cap]
+13.7 +12.2 91 +14 +14 1004.1 917.4
18 16.07 Ю 1 50 км 10/10 600 м
[Cb cap]
+12.5 +11.6 94 +12 +12 1005.4 917.4
21 16.07 ЮЗ 2 50 км 4/4 1000 м
[Sc]
+11.5 +9.5 88 +10 +12 1005.3 916.9 +11.2
00 17.07 ЮВ 2 50 км 4/0
[Ac trans]
+16.9 +10.3 65 +17 +24 1003.5 916.8
03 17.07 СВ 1 50 км 8/4 600 м
[Cu hum Ci fib]
+20.9 +8.1 44 +23 +31 комфорт 1000.1 914.8
06 17.07 СВ 1 50 км 10/0
[Ac As]
+21.4 +4.1 32 +22 +24 комфорт 999.0 913.8
09 17.07 штиль 0 50 км в посл. час дождь 8/4 1000 м
[Sc Ac trans]
+16.0 +12.8 81 +16 +17 1000.3 913.7 +21.9 1
12 17.07 штиль 0 50 км {дождь} 6/0
[Ac trans Cs]
+13.1 +11.0 87 +13 +13 1001.7 914.1
15 17.07 штиль 0 50 км 8/8 1000 м
[Sc]
+12.3 +11.2 93 +12 +12 1001.0 913.3
18 17.07 штиль 0 50 км 6/6 1000 м
[Sc]
+11.2 +10.4 95 +10 +10 1001.2 913.1
21 17.07 штиль 0 20 км слаб. ливневой дождь 10/10 600 м
[Cb cap]
+7.9 +6.8 93 +7 +7 1000.2 911.1 +7.7 0.4
00 18.07 штиль 0 50 км {ливн. осадки} 10/10 600 м
[Cb cap]
+12.1 +10.2 88 +12 +12 998.1 910.5
03 18.07 штиль 0 50 км 10/10 600 м
[Cb cap]
+14.9 +9.9 72 +15 +15 996.3 909.6
06 18.07 ЮЗ 1 50 км 10/10 600 м
[Cu Sc]
+14.7 +9.9 73 +15 +15 996.7 910.0
09 18.07 СВ 1 50 км в посл. час ливневой дождь 10/10 600 м
[Cb cap]
+13.0 +11.3 89 +13 +13 998.1 910.8 +15.2 5
12 18.07 СВ 1 50 км слаб. дождь 10/10 600 м
[Cu Sc]
+10.8 +10.0 95 +10 +10 1000.6 912.4
15 18.07 СВ 1 10 км слаб. дождь 10/10 600 м
[Cu Sc]
+10.1 +9.3 95 +10 +10 1002.4 913.8
18 18.07 В 1 20 км слаб. дождь 10/10 600 м
[Cu Sc]
+9.6 +9.0 96 +9 +9 1002.1 913.4
21 18.07 СВ 1 50 км в посл. час дождь 10/10 600 м
[Cu Sc]
+5.4 +4.9 97 +4 +4 1004.3 914.0 +5.3 10
00 19.07 С 1 50 км {дождь} 10/10 600 м
[Cu Sc]
+7.5 +6.4 93 +6 +6 1004.2 914.6
03 19.07 СВ 3 50 км 10/10 1000 м
[Sc]
+7.5 +5.7 88 +5 +5 1004.9 915.2

 

Местоположение метеостанции Агаякан (Якутия, Россия): широта 63.33 долгота 141.70 высота над уровнем моря 777 м.

В архиве по умолчанию представлена погода в Агаякане за последнюю неделю. Архивные данные за месяц целиком и за предыдущие месяцы, начиная с января 2011 года, Вы можете получить, выбрав интересующий диапазон дат из раскрывающегося списка и нажав кнопку "Ввод!".


*Определитесь, кто Вы:
робот инопланетянин человек

Внимание! Время в таблицах - всемирное. Для получения местного времени необходимо прибавить поправку, которая равна 10 ч.

Смотрите также архив погоды в соседних городах и на ближайших метеорологических станциях:

Погода в Оймяконе (Якутия, Россия) (71 км)
Погода в Юртах (Якутия, Россия) (80 км)
Погода в Восточной (Якутия, Россия) (106 км)
Погода в Усть-Нере (Якутия, Россия) (150 км)
Погода в Делянкире (Якутия, Россия) (201 км)
Погода в Теплом Ключе (Якутия, Россия) (254 км)
Погода в Уеге (Хабаровский край, Россия) (295 км)
Погода в Томпо (Якутия, Россия) (299 км)
Погода в Сусумане (Магаданская область, Россия) (328 км)
Погода в Колымской (Магаданская область, Россия) (344 км)

Пояснения к столбцам:

Ветер - указаны скорость ветра в м/с - средняя за 10 мин, порывы в срок и между сроками (в фигурных скобках) и направление, откуда дует ветер: С - северный, СВ - северо-восточный, В - восточный, ЮВ - юго-восточный, Ю - южный, ЮЗ - юго-западный, З - западный, СЗ - северо-западный.
Видимость - горизонтальная дальность видимости в метрах или километрах. При видимости от 1 до 10 км при отсутствии осадков обычно наблюдается дымка, при ухудшении видимости до 1 км и менее - туман. В сухую погоду видимость может ухудшаться дымом, пылью или мглою.
Явления - указаны атмосферные явления, наблюдавшиеся в срок или в последний час перед сроком; фигурными скобками обозначены явления, наблюдавшиеся между сроками (за 1-3 часа до срока); квадратными скобками обозначены град или гололедные отложения с указанием их диаметра в мм.
Облачность - указаны через наклонную черту общая и нижняя облачность в баллах и высота нижней границы облаков в метрах; квадратными скобками обозначены формы облаков: Ci - перистые, Cs - перисто-слоистые, Cc - перисто-кучевые, Ac - высококучевые, As - высокослоистые, Sc - слоисто-кучевые, Ns - слоисто-дождевые, Cu - кучевые, Cb - кучево-дождевые. Подробнее классификацию облаков см. в Атласе облаков (PDF).
T - Температура воздуха - температура, измеренная на высоте 2 м над землей.
Td - Температура точки росы - температура, при понижении до которой содержащийся в воздухе водяной пар достигнет насыщения.
f - Относительная влажность воздуха - влажноcть воздуха, измеренная на высоте 2 м над землей.
Te - Эффективная температура - температура, которую ощущает одетый по сезону человек в тени. Характеристика душности погоды. При расчете учитывается влияние влажности воздуха и скорости ветра на теплоощущения человека.
Tes - Эффективная температура на солнце - температура, которую ощущает человек, с поправкой на солнечный нагрев. Характеристика знойности погоды. Зависит от высоты солнца над горизонтом, облачности и скорости ветра. Ночью, в пасмурную погоду, а также при ветре 12 м/с и более поправка равна нулю.
P - Атмосферное давление - приведенное к уровню моря атмосферное давление.
Po - Атмосферное давление - измеренное на уровне метеостанции атмосферное давление.
Tmin - Минимальная температура - минимум температуры воздуха на высоте 2 м над землей.
Tmax - Максимальная температура - максимум температуры воздуха на высоте 2 м над землей.
R - Количество осадков - Количество выпавших осадков за период времени, мм. При наведении курсора мыши на число - период времени, за который выпало указанное количество осадков.
R24 - Количество осадков - Количество выпавших осадков за 24 часа, мм.
S - Снежный покров - Высота снежного покрова, см. При наведении курсора мыши на число - состояние снежного покрова и степень покрытия местности в баллах.